QPF
0.02 0.02 0.03 0.04 0.04 0.04 0.05 0.04 0.04 0.05 0.04 0.03 0.03 0.03 0.01 0.01 0.03 0.05 0.07 0.09 0.07 0.07 0.06 0.05 0.05 0.05 0.05 0.06 0.07 0.06 0.04 0.05 0.04 0.04 0.04 0.05 0.05 0.07
0.03 0.03 0.02 0.02 0.04 0.03 0.03 0.03 0.03 0.04 0.06 0.04 0.04 0.04 0.03 0.02 0.02 0.03 0.06 0.09 0.09 0.08 0.09 0.07 0.05 0.05 0.07 0.08 0.10 0.09 0.08 0.08 0.07 0.06 0.04 0.04 0.04 0.06
0.04 0.03 0.03 0.03 0.04 0.05 0.03 0.02 0.02 0.03 0.04 0.06 0.05 0.05 0.04 0.03 0.03 0.04 0.06 0.06 0.06 0.06 0.07 0.08 0.08 0.08 0.08 0.08 0.08 0.08 0.07 0.07 0.07 0.06 0.05 0.04 0.04 0.05
0.02 0.02 0.02 0.02 0.02 0.04 0.03 0.02 0.02 0.01 0.02 0.05 0.05 0.05 0.04 0.03 0.03 0.04 0.04 0.05 0.05 0.05 0.05 0.06 0.07 0.08 0.08 0.08 0.06 0.05 0.05 0.05 0.05 0.05 0.04 0.03 0.03 0.03
0.01 0.00 0.00 0.00 0.01 0.02 0.01 0.01 0.02 0.02 0.02 0.03 0.05 0.05 0.04 0.04 0.03 0.02 0.02 0.03 0.03 0.04 0.04 0.04 0.04 0.04 0.05 0.05 0.04 0.04 0.04 0.03 0.03 0.04 0.03 0.03 0.02 0.02
0.02 0.01 0.01 0.01 0.01 0.01 0.02 0.02 0.02 0.02 0.03 0.03 0.04 0.03 0.03 0.03 0.02 0.02 0.02 0.02 0.02 0.02 0.03 0.03 0.03 0.03 0.02 0.02 0.02 0.03 0.03 0.02 0.02 0.03 0.03 0.03 0.03 0.02
0.03 0.03 0.02 0.02 0.02 0.02 0.02 0.03 0.02 0.01 0.02 0.02 0.02 0.02 0.02 0.02 0.02 0.02 0.02 0.02 0.02 0.02 0.03 0.03 0.03 0.03 0.03 0.02 0.02 0.02 0.02 0.02 0.02 0.02 0.03 0.03 0.03 0.02
0.03 0.03 0.03 0.02 0.02 0.03 0.04 0.03 0.02 0.02 0.01 0.01 0.02 0.02 0.02 0.02 0.02 0.02 0.01 0.01 0.01 0.02 0.03 0.03 0.03 0.03 0.02 0.02 0.02 0.02 0.02 0.02 0.01 0.02 0.02 0.01 0.02 0.02
0.03 0.04 0.04 0.03 0.02 0.02 0.02 0.02 0.02 0.02 0.01 0.01 0.02 0.02 0.02 0.02 0.02 0.02 0.02 0.02 0.01 0.01 0.02 0.02 0.02 0.01 0.01 0.01 0.01 0.01 0.01 0.01 0.01 0.01 0.02 0.02 0.02 0.02
0.03 0.03 0.03 0.03 0.02 0.02 0.01 0.01 0.01 0.00 0.00 0.01 0.01 0.01 0.01 0.01 0.01 0.01 0.02 0.02 0.02 0.02 0.02 0.02 0.02 0.02 0.02 0.01 0.01 0.01 0.01 0.00 0.00 0.00 0.00 0.01 0.01 0.01
0.03 0.03 0.03 0.02 0.02 0.02 0.01 0.01 0.00 0.00 0.00 0.01 0.01 0.01 0.01 0.01 0.02 0.01 0.01 0.01 0.02 0.02 0.02 0.01 0.01 0.01 0.01 0.01 0.01 0.01 0.00 0.00 0.00 0.00 0.00 0.00 0.00 0.00
0.02 0.02 0.03 0.03 0.03 0.03 0.02 0.01 0.01 0.01 0.01 0.01 0.01 0.01 0.01 0.01 0.02 0.01 0.01 0.01 0.01 0.01 0.01 0.01 0.01 0.00 0.00 0.00 0.00 0.00 0.00 0.00 0.00 0.00 0.00 0.00 0.00 0.00
0.02 0.01 0.01 0.02 0.02 0.03 0.03 0.02 0.02 0.01 0.01 0.01 0.01 0.01 0.01 0.01 0.01 0.01 0.01 0.01 0.01 0.01 0.01 0.01 0.01 0.01 0.00 0.00 0.00 0.00 0.00 0.00 0.00 0.00 0.00 0.00 0.00 0.00
0.03 0.03 0.02 0.02 0.02 0.02 0.02 0.02 0.03 0.02 0.01 0.01 0.01 0.01 0.01 0.01 0.01 0.01 0.01 0.01 0.01 0.01 0.01 0.01 0.01 0.01 0.01 0.00 0.00 0.00 0.00 0.00 0.00 0.00 0.00 0.00 0.00 0.00
0.03 0.03 0.03 0.03 0.02 0.02 0.01 0.02 0.02 0.03 0.03 0.02 0.01 0.01 0.02 0.02 0.01 0.01 0.00 0.01 0.01 0.01 0.01 0.01 0.01 0.01 0.01 0.01 0.01 0.00 0.00 0.00 0.00 0.00 0.00 0.00 0.00 0.01
0.02 0.02 0.02 0.02 0.02 0.02 0.02 0.02 0.01 0.01 0.02 0.02 0.02 0.02 0.03 0.02 0.02 0.01 0.00 0.00 0.00 0.01 0.01 0.01 0.01 0.01 0.01 0.01 0.01 0.01 0.01 0.01 0.00 0.00 0.00 0.00 0.00 0.00
0.01 0.01 0.02 0.03 0.02 0.02 0.01 0.01 0.01 0.01 0.01 0.01 0.02 0.02 0.02 0.02 0.01 0.01 0.01 0.00 0.00 0.00 0.00 0.01 0.01 0.01 0.01 0.01 0.01 0.00 0.01 0.01 0.01 0.01 0.01 0.01 0.00 0.00
0.01 0.01 0.01 0.02 0.02 0.01 0.01 0.01 0.02 0.02 0.01 0.01 0.01 0.01 0.01 0.01 0.01 0.01 0.01 0.00 0.00 0.00 0.00 0.00 0.01 0.01 0.01 0.01 0.01 0.00 0.00 0.00 0.00 0.00 0.00 0.00 0.00 0.00
0.01 0.01 0.01 0.01 0.02 0.02 0.01 0.01 0.02 0.02 0.02 0.01 0.01 0.01 0.01 0.01 0.01 0.00 0.00 0.00 0.00 0.00 0.00 0.01 0.01 0.01 0.01 0.01 0.01 0.00 0.01 0.01 0.01 0.00 0.00 0.00 0.00 0.00
0.01 0.01 0.02 0.02 0.02 0.03 0.03 0.02 0.02 0.03 0.03 0.03 0.02 0.02 0.02 0.01 0.01 0.01 0.01 0.01 0.00 0.00 0.00 0.00 0.01 0.01 0.01 0.01 0.00 0.00 0.01 0.01 0.01 0.00 0.00 0.00 0.00 0.00
0.01 0.02 0.03 0.03 0.04 0.05 0.04 0.03 0.02 0.01 0.02 0.02 0.04 0.05 0.03 0.03 0.03 0.02 0.01 0.01 0.01 0.01 0.01 0.01 0.01 0.01 0.01 0.01 0.01 0.00 0.00 0.01 0.01 0.01 0.01 0.00 0.01 0.01
0.02 0.02 0.02 0.03 0.03 0.05 0.05 0.04 0.04 0.03 0.01 0.01 0.02 0.05 0.05 0.05 0.04 0.04 0.02 0.02 0.01 0.01 0.01 0.01 0.01 0.01 0.01 0.01 0.01 0.00 0.00 0.00 0.01 0.01 0.01 0.01 0.01 0.02
0.02 0.01 0.01 0.02 0.02 0.03 0.04 0.03 0.03 0.04 0.03 0.02 0.02 0.03 0.04 0.05 0.05 0.05 0.05 0.04 0.03 0.02 0.02 0.02 0.02 0.01 0.02 0.02 0.01 0.01 0.01 0.00 0.00 0.01 0.01 0.01 0.01 0.02
MSLP
1012.84 1013.16 1013.48 1013.76 1014.01 1014.21 1014.36 1014.46 1014.52 1014.55 1014.56 1014.55 1014.54 1014.53 1014.53 1014.56 1014.63 1014.76 1014.95 1015.21 1015.56 1015.97 1016.43 1016.93 1017.44 1017.94 1018.40 1018.83 1019.20 1019.53 1019.83 1020.10 1020.35 1020.59 1020.83 1021.05 1021.27 1021.46
1012.10 1012.38 1012.66 1012.91 1013.13 1013.33 1013.49 1013.63 1013.74 1013.82 1013.89 1013.93 1013.95 1013.95 1013.95 1013.95 1013.97 1014.04 1014.17 1014.38 1014.68 1015.07 1015.52 1016.02 1016.55 1017.08 1017.59 1018.07 1018.49 1018.88 1019.22 1019.53 1019.82 1020.08 1020.34 1020.58 1020.80 1021.00
1011.43 1011.66 1011.89 1012.11 1012.31 1012.50 1012.68 1012.85 1013.01 1013.15 1013.28 1013.37 1013.43 1013.46 1013.46 1013.45 1013.45 1013.48 1013.56 1013.72 1013.97 1014.31 1014.73 1015.21 1015.73 1016.26 1016.79 1017.28 1017.73 1018.14 1018.52 1018.86 1019.17 1019.47 1019.74 1020.00 1020.23 1020.44
1010.85 1011.04 1011.22 1011.40 1011.58 1011.76 1011.96 1012.15 1012.35 1012.54 1012.72 1012.87 1012.97 1013.03 1013.06 1013.05 1013.04 1013.05 1013.10 1013.22 1013.42 1013.72 1014.09 1014.53 1015.01 1015.51 1016.01 1016.48 1016.93 1017.35 1017.73 1018.09 1018.43 1018.75 1019.05 1019.32 1019.58 1019.81
1010.38 1010.53 1010.68 1010.82 1010.97 1011.14 1011.33 1011.53 1011.75 1011.97 1012.18 1012.36 1012.51 1012.60 1012.65 1012.66 1012.66 1012.67 1012.71 1012.81 1012.98 1013.22 1013.55 1013.93 1014.35 1014.79 1015.24 1015.68 1016.10 1016.49 1016.88 1017.24 1017.59 1017.93 1018.26 1018.57 1018.85 1019.10
1010.04 1010.15 1010.26 1010.36 1010.48 1010.62 1010.78 1010.97 1011.18 1011.40 1011.61 1011.80 1011.96 1012.08 1012.15 1012.19 1012.22 1012.24 1012.29 1012.39 1012.54 1012.75 1013.02 1013.34 1013.70 1014.07 1014.46 1014.84 1015.21 1015.58 1015.94 1016.31 1016.68 1017.04 1017.40 1017.75 1018.06 1018.34
1009.80 1009.88 1009.95 1010.02 1010.10 1010.19 1010.31 1010.45 1010.61 1010.79 1010.97 1011.14 1011.29 1011.41 1011.50 1011.56 1011.61 1011.67 1011.75 1011.86 1012.01 1012.20 1012.44 1012.71 1013.00 1013.30 1013.62 1013.93 1014.26 1014.59 1014.94 1015.31 1015.70 1016.09 1016.49 1016.86 1017.21 1017.53
1009.64 1009.69 1009.74 1009.76 1009.80 1009.83 1009.88 1009.95 1010.04 1010.14 1010.25 1010.36 1010.47 1010.57 1010.65 1010.73 1010.82 1010.91 1011.02 1011.16 1011.33 1011.52 1011.74 1011.97 1012.21 1012.46 1012.71 1012.97 1013.25 1013.56 1013.90 1014.27 1014.67 1015.10 1015.53 1015.95 1016.33 1016.68
1009.53 1009.58 1009.59 1009.58 1009.56 1009.53 1009.51 1009.48 1009.47 1009.47 1009.48 1009.51 1009.55 1009.60 1009.66 1009.75 1009.85 1009.98 1010.13 1010.31 1010.50 1010.71 1010.92 1011.14 1011.34 1011.55 1011.76 1011.98 1012.22 1012.51 1012.84 1013.22 1013.64 1014.09 1014.55 1015.01 1015.43 1015.80
1009.46 1009.49 1009.49 1009.46 1009.39 1009.30 1009.19 1009.07 1008.94 1008.83 1008.73 1008.65 1008.61 1008.60 1008.62 1008.69 1008.81 1008.96 1009.15 1009.36 1009.59 1009.82 1010.05 1010.26 1010.45 1010.63 1010.81 1011.00 1011.23 1011.50 1011.82 1012.20 1012.63 1013.10 1013.58 1014.06 1014.50 1014.89
1009.38 1009.42 1009.41 1009.36 1009.26 1009.11 1008.93 1008.72 1008.50 1008.28 1008.07 1007.89 1007.75 1007.67 1007.66 1007.70 1007.81 1007.98 1008.20 1008.44 1008.70 1008.96 1009.20 1009.42 1009.61 1009.79 1009.95 1010.13 1010.33 1010.59 1010.90 1011.27 1011.70 1012.16 1012.65 1013.12 1013.57 1013.96
1009.28 1009.33 1009.33 1009.27 1009.14 1008.96 1008.73 1008.45 1008.15 1007.84 1007.55 1007.28 1007.07 1006.93 1006.87 1006.89 1006.99 1007.16 1007.39 1007.66 1007.94 1008.22 1008.48 1008.71 1008.91 1009.08 1009.24 1009.40 1009.60 1009.83 1010.12 1010.46 1010.87 1011.31 1011.76 1012.22 1012.64 1013.01
1009.14 1009.20 1009.20 1009.14 1009.01 1008.81 1008.55 1008.24 1007.90 1007.54 1007.19 1006.87 1006.61 1006.43 1006.33 1006.32 1006.40 1006.57 1006.80 1007.07 1007.36 1007.66 1007.93 1008.17 1008.38 1008.55 1008.71 1008.87 1009.04 1009.25 1009.50 1009.81 1010.16 1010.55 1010.95 1011.35 1011.73 1012.06
1008.96 1009.01 1009.02 1008.96 1008.83 1008.63 1008.37 1008.06 1007.70 1007.33 1006.97 1006.64 1006.36 1006.15 1006.03 1006.01 1006.07 1006.22 1006.44 1006.70 1006.99 1007.28 1007.56 1007.80 1008.02 1008.20 1008.35 1008.50 1008.65 1008.83 1009.04 1009.29 1009.58 1009.89 1010.23 1010.55 1010.86 1011.13
1008.73 1008.77 1008.76 1008.70 1008.57 1008.39 1008.15 1007.85 1007.53 1007.19 1006.85 1006.53 1006.27 1006.07 1005.95 1005.91 1005.96 1006.08 1006.28 1006.52 1006.79 1007.07 1007.33 1007.57 1007.78 1007.96 1008.12 1008.26 1008.40 1008.55 1008.71 1008.91 1009.12 1009.35 1009.59 1009.83 1010.06 1010.26
1008.49 1008.49 1008.45 1008.38 1008.25 1008.08 1007.87 1007.62 1007.35 1007.06 1006.77 1006.51 1006.28 1006.11 1006.00 1005.96 1005.99 1006.09 1006.25 1006.45 1006.69 1006.93 1007.18 1007.40 1007.61 1007.79 1007.95 1008.09 1008.21 1008.34 1008.47 1008.61 1008.76 1008.91 1009.07 1009.22 1009.37 1009.50
1008.29 1008.23 1008.15 1008.04 1007.91 1007.75 1007.57 1007.37 1007.16 1006.94 1006.72 1006.53 1006.36 1006.22 1006.13 1006.09 1006.11 1006.17 1006.29 1006.44 1006.62 1006.82 1007.03 1007.24 1007.43 1007.61 1007.77 1007.91 1008.04 1008.16 1008.27 1008.37 1008.48 1008.57 1008.66 1008.74 1008.81 1008.88
1008.19 1008.07 1007.92 1007.78 1007.62 1007.47 1007.31 1007.16 1007.00 1006.86 1006.72 1006.59 1006.48 1006.39 1006.32 1006.28 1006.26 1006.29 1006.34 1006.43 1006.55 1006.69 1006.85 1007.02 1007.20 1007.37 1007.54 1007.69 1007.83 1007.96 1008.07 1008.17 1008.25 1008.31 1008.36 1008.40 1008.43 1008.45
1008.28 1008.08 1007.88 1007.68 1007.49 1007.33 1007.19 1007.07 1006.96 1006.88 1006.80 1006.74 1006.68 1006.62 1006.56 1006.50 1006.46 1006.43 1006.42 1006.43 1006.47 1006.54 1006.64 1006.76 1006.91 1007.07 1007.24 1007.41 1007.57 1007.72 1007.85 1007.96 1008.05 1008.12 1008.16 1008.18 1008.20 1008.21
1008.62 1008.34 1008.08 1007.83 1007.61 1007.43 1007.28 1007.18 1007.11 1007.07 1007.04 1007.02 1006.99 1006.94 1006.88 1006.80 1006.71 1006.61 1006.52 1006.45 1006.40 1006.39 1006.41 1006.48 1006.59 1006.72 1006.89 1007.07 1007.25 1007.43 1007.60 1007.74 1007.86 1007.96 1008.02 1008.07 1008.10 1008.12
1009.21 1008.88 1008.56 1008.27 1008.01 1007.81 1007.65 1007.55 1007.50 1007.47 1007.47 1007.46 1007.44 1007.39 1007.30 1007.19 1007.04 1006.87 1006.69 1006.52 1006.38 1006.27 1006.21 1006.21 1006.26 1006.37 1006.51 1006.69 1006.90 1007.10 1007.31 1007.49 1007.66 1007.80 1007.91 1008.00 1008.07 1008.13
1010.03 1009.66 1009.30 1008.97 1008.68 1008.46 1008.29 1008.17 1008.11 1008.08 1008.07 1008.05 1008.02 1007.94 1007.82 1007.65 1007.44 1007.19 1006.92 1006.66 1006.41 1006.21 1006.06 1005.98 1005.96 1006.02 1006.14 1006.31 1006.51 1006.74 1006.97 1007.20 1007.42 1007.61 1007.78 1007.93 1008.06 1008.17
1010.99 1010.60 1010.22 1009.87 1009.56 1009.30 1009.11 1008.97 1008.89 1008.84 1008.80 1008.75 1008.68 1008.56 1008.39 1008.16 1007.87 1007.54 1007.19 1006.83 1006.49 1006.20 1005.96 1005.79 1005.71 1005.71 1005.78 1005.92 1006.11 1006.35 1006.60 1006.86 1007.12 1007.36 1007.59 1007.80 1007.99 1008.16
Thickness
5672 5671 5670 5670 5670 5670 5669 5668 5665 5662 5662 5664 5665 5667 5667 5667 5666 5666 5665 5664 5662 5661 5659 5658 5657 5657 5655 5654 5654 5653 5653 5652 5652 5652 5653 5653 5653 5654
5667 5665 5665 5664 5664 5663 5663 5662 5661 5659 5657 5658 5659 5660 5660 5661 5660 5659 5658 5657 5656 5655 5653 5653 5652 5652 5650 5648 5647 5647 5646 5646 5646 5646 5647 5647 5647 5647
5661 5660 5659 5658 5657 5657 5657 5656 5655 5654 5652 5652 5652 5653 5653 5653 5652 5652 5651 5650 5649 5648 5647 5647 5646 5645 5644 5642 5641 5640 5639 5639 5639 5639 5640 5640 5640 5640
5656 5655 5653 5653 5652 5652 5651 5650 5649 5648 5648 5646 5646 5645 5645 5645 5645 5644 5644 5643 5642 5642 5641 5640 5639 5639 5637 5636 5635 5634 5633 5632 5632 5632 5632 5632 5632 5632
5652 5650 5649 5648 5647 5647 5646 5646 5644 5644 5643 5641 5639 5638 5638 5637 5637 5637 5637 5636 5635 5635 5634 5633 5632 5631 5630 5629 5628 5627 5626 5625 5625 5624 5624 5624 5624 5623
5648 5647 5645 5644 5643 5642 5642 5641 5640 5638 5637 5635 5633 5632 5631 5630 5630 5630 5629 5628 5628 5628 5627 5627 5626 5624 5623 5623 5622 5620 5619 5618 5617 5616 5616 5616 5616 5616
5644 5642 5641 5641 5640 5639 5638 5636 5635 5633 5631 5629 5628 5626 5625 5624 5624 5623 5622 5621 5621 5620 5620 5620 5619 5618 5616 5615 5614 5613 5612 5611 5610 5609 5609 5609 5608 5608
5639 5638 5636 5636 5635 5634 5633 5632 5631 5629 5627 5625 5623 5622 5621 5620 5619 5617 5616 5615 5615 5614 5613 5613 5611 5610 5609 5609 5608 5607 5606 5605 5603 5603 5603 5602 5601 5601
5635 5633 5632 5631 5629 5628 5627 5626 5625 5624 5624 5623 5620 5618 5617 5616 5614 5613 5610 5610 5609 5609 5606 5607 5605 5604 5603 5603 5602 5601 5600 5599 5597 5596 5596 5595 5595 5594
5631 5629 5627 5625 5624 5623 5622 5621 5619 5619 5618 5618 5617 5615 5614 5612 5610 5609 5606 5604 5603 5602 5600 5600 5600 5599 5599 5597 5596 5595 5593 5593 5592 5591 5590 5589 5588 5587
5628 5626 5624 5622 5620 5618 5617 5616 5615 5615 5614 5613 5612 5611 5609 5607 5605 5603 5601 5600 5599 5598 5595 5594 5594 5593 5593 5592 5591 5589 5588 5587 5586 5585 5584 5582 5581 5580
5624 5623 5621 5620 5617 5615 5614 5613 5612 5611 5610 5609 5607 5605 5604 5602 5600 5598 5597 5595 5594 5593 5591 5589 5589 5587 5588 5588 5586 5584 5582 5581 5580 5579 5577 5575 5574 5572
5622 5620 5619 5616 5614 5613 5611 5610 5609 5607 5606 5604 5602 5601 5599 5597 5595 5593 5591 5590 5589 5588 5587 5583 5583 5581 5581 5581 5580 5578 5577 5575 5574 5573 5571 5569 5567 5565
5620 5618 5616 5614 5612 5610 5608 5607 5605 5604 5602 5600 5598 5596 5594 5593 5591 5589 5587 5585 5584 5583 5581 5579 5578 5576 5575 5574 5574 5573 5571 5569 5567 5566 5564 5563 5561 5559
5617 5615 5613 5611 5609 5607 5605 5603 5601 5600 5598 5596 5594 5592 5590 5588 5587 5585 5583 5581 5579 5578 5576 5574 5572 5570 5568 5568 5567 5566 5564 5563 5561 5559 5558 5556 5554 5552
5613 5611 5609 5607 5605 5603 5601 5599 5597 5595 5594 5592 5590 5588 5586 5584 5582 5580 5578 5577 5575 5574 5571 5569 5567 5565 5564 5562 5560 5560 5558 5556 5555 5552 5550 5548 5546 5545
5609 5607 5605 5603 5601 5599 5597 5595 5593 5591 5589 5587 5586 5584 5582 5580 5578 5575 5573 5572 5570 5569 5568 5565 5562 5560 5558 5557 5556 5555 5553 5550 5548 5545 5543 5542 5541 5539
5606 5604 5602 5600 5598 5596 5594 5591 5589 5587 5585 5583 5581 5579 5578 5576 5574 5572 5570 5568 5566 5564 5562 5560 5557 5555 5554 5552 5549 5549 5547 5544 5541 5538 5535 5535 5536 5534
5603 5601 5599 5597 5595 5593 5590 5588 5586 5583 5581 5579 5577 5575 5573 5572 5570 5568 5566 5564 5561 5559 5557 5554 5551 5550 5549 5549 5547 5541 5539 5537 5535 5532 5530 5528 5529 5528
5599 5597 5595 5593 5591 5589 5587 5584 5581 5579 5576 5574 5573 5571 5569 5567 5565 5564 5562 5560 5557 5555 5552 5549 5546 5544 5542 5541 5539 5536 5531 5529 5528 5526 5525 5523 5522 5521
5594 5593 5591 5589 5586 5584 5582 5579 5577 5575 5573 5571 5569 5567 5565 5563 5561 5559 5557 5554 5552 5550 5548 5546 5542 5538 5535 5532 5531 5531 5527 5523 5520 5518 5517 5517 5518 5517
5590 5588 5586 5584 5581 5579 5577 5575 5572 5570 5568 5566 5565 5563 5561 5558 5556 5554 5552 5550 5548 5545 5543 5540 5536 5532 5530 5528 5528 5526 5524 5520 5516 5512 5510 5509 5509 5511
5586 5584 5581 5579 5577 5575 5572 5570 5568 5566 5564 5562 5560 5558 5557 5554 5552 5550 5548 5545 5543 5540 5538 5535 5531 5528 5525 5523 5521 5519 5517 5515 5512 5510 5508 5505 5503 5502